Location: ActonStarParty
(42.4766°N, 71.4538°W)
Time: 20:52:29
(UTC-04:00)

Amateur Radio Satellites - All Passes

Search period start: 26 July 2017 20:22
Search period end: 27 July 2017 20:22
Location: ActonStarParty, 42.4766°N, 71.4538°W

Satellite Date Start Highest point End Downlink Frequencies (MHz)
Time Altitude Azimuth
HO-68 26 Jul 20:27:35 20:33:39 29° 265° (W) 20:39:45 435.675
AAUSAT CUBESAT 2 26 Jul 20:36:39 20:40:28 38° 262° (W) 20:44:21 437.432
UWE-3 26 Jul 20:41:11 20:45:24 36° 263° (W) 20:49:32 435.000/436.395/437.385
BEESAT 3 26 Jul 20:49:04 20:53:00 52° 53° (NE) 20:56:52 437.485
ZACube-1 26 Jul 20:50:42 20:55:01 50° 261° (W) 20:59:15 437.345
Tancredo 1 26 Jul 20:55:52 20:58:30 29° 336° (NNW) 21:01:10 437.200
ISS 26 Jul 20:57:57 21:01:11 71° 328° (NNW) 21:04:27 437.550
AO-85 26 Jul 21:05:21 21:09:34 78° 57° (ENE) 21:14:04 145.980
FO-29 26 Jul 21:06:36 21:11:29 20° 87° (E) 21:15:58 435.910
YUBILEINY 26 Jul 21:11:59 21:17:46 19° 300° (WNW) 21:23:35 435.215
Oscar 11 26 Jul 21:13:51 21:17:53 40° 262° (W) 21:21:58 .
DELFI C3 26 Jul 21:22:18 21:26:10 61° 75° (ENE) 21:30:06 145.870
EO-88 26 Jul 21:22:59 21:26:19 36° 72° (ENE) 21:29:41 145.990 - 145.960
AO-73 26 Jul 21:30:57 21:34:19 21° 266° (W) 21:37:40 145.935
BEESAT 2 26 Jul 21:32:59 21:36:58 51° 53° (NE) 21:40:54 435.950
nSIGHT-1 26 Jul 21:38:50 21:41:50 34° 335° (NNW) 21:44:49 .
STRAND 1 26 Jul 21:39:10 21:42:53 21° 297° (WNW) 21:46:36 437.568
UNISAT 6 26 Jul 22:01:58 22:05:31 24° 95° (E) 22:09:00 437.425
M-CUBED/EXP-1 PRIME 26 Jul 22:14:05 22:14:35 10° 93° (E) 22:15:03 437.505
BEESAT 3 26 Jul 22:27:55 22:30:08 15° 250° (WSW) 22:32:20 437.485
RS-15 26 Jul 22:31:44 22:42:38 35° 29° (NNE) 22:53:05 29.354- 29.394
Tancredo 1 26 Jul 22:32:54 22:34:35 14° 356° (N) 22:36:17 437.200
ISS 26 Jul 22:35:36 22:38:06 20° 346° (NNW) 22:40:36 437.550
ESTCUBE 1 26 Jul 22:37:05 22:40:52 28° 68° (ENE) 22:44:41 437.505/2401.250
TIGRISAT 26 Jul 22:45:08 22:49:27 68° 102° (ESE) 22:53:40 435.000
AO-85 26 Jul 22:48:08 22:49:27 11° 251° (WSW) 22:50:47 145.980
FO-29 26 Jul 22:50:14 22:57:20 71° 288° (WNW) 23:03:32 435.910
LO-87 26 Jul 22:54:09 22:57:45 64° 75° (ENE) 23:01:22 145.935 - 145.965
EO-88 26 Jul 22:58:07 23:00:08 14° 268° (W) 23:02:10 145.990 - 145.960
PRISM 26 Jul 23:00:09 23:04:22 89° 116° (ESE) 23:08:31 437.425
DELFI C3 26 Jul 23:00:52 23:01:20 10° 271° (W) 23:01:48 145.870
BEESAT 2 26 Jul 23:11:56 23:14:18 15° 250° (WSW) 23:16:38 435.950
VELOX 1 26 Jul 23:15:30 23:18:19 17° 63° (ENE) 23:21:08 145.980
nSIGHT-1 26 Jul 23:16:47 23:18:56 16° 355° (N) 23:21:05 .
AIST 2D 26 Jul 23:23:48 23:26:33 21° 95° (E) 23:29:16 435.315
DUCHIFAT 1 26 Jul 23:35:18 23:36:05 10° 89° (E) 23:36:51 145.980
UNISAT 6 26 Jul 23:38:29 23:42:13 29° 292° (WNW) 23:45:55 437.425
POLYITAN 1 26 Jul 23:39:13 23:41:43 15° 92° (E) 23:44:13 437.675
M-CUBED/EXP-1 PRIME 26 Jul 23:44:50 23:49:30 89° 288° (WNW) 23:54:10 437.505
SPROUT 26 Jul 23:50:10 23:54:12 41° 71° (ENE) 23:58:15 437.525
QB50P2 26 Jul 23:51:41 23:55:04 23° 95° (E) 23:58:26 145.880/145.840
O/OREOS (USA 219) 27 Jul 00:00:13 00:04:02 26° 58° (ENE) 00:07:50 437.305
NANOSAT C BR1 27 Jul 00:01:41 00:05:08 24° 95° (E) 00:08:34 145.865
EO-79 27 Jul 00:02:49 00:06:28 28° 96° (E) 00:10:05 145.935-145.965
Tancredo 1 27 Jul 00:08:34 00:10:48 19° 16° (NNE) 00:13:02 437.200
ISS 27 Jul 00:13:11 00:15:27 17° 7° (N) 00:17:42 437.550
ESTCUBE 1 27 Jul 00:13:43 00:17:36 29° 264° (W) 00:21:31 437.505/2401.250
TIGRISAT 27 Jul 00:23:53 00:25:33 12° 299° (WNW) 00:27:12 435.000
FO-29 27 Jul 00:37:28 00:40:55 14° 309° (NW) 00:44:13 435.910
RS-15 27 Jul 00:44:49 00:57:02 87° 56° (ENE) 01:08:34 29.354- 29.394
DX 1 27 Jul 00:49:03 00:53:15 48° 72° (ENE) 00:57:29 434.975-435.025
VELOX 1 27 Jul 00:50:02 00:54:20 51° 260° (W) 00:58:41 145.980
nSIGHT-1 27 Jul 00:53:36 00:56:11 21° 16° (NNE) 00:58:45 .
AIST 2D 27 Jul 00:56:54 00:59:40 22° 291° (WNW) 01:02:24 435.315
DUCHIFAT 1 27 Jul 01:08:02 01:12:12 66° 285° (WNW) 01:16:19 145.980
50 SAT 27 Jul 01:11:58 01:15:18 57° 259° (W) 01:18:41 437.505
POLYITAN 1 27 Jul 01:13:44 01:17:45 45° 288° (WNW) 01:21:44 437.675
M-CUBED/EXP-1 PRIME 27 Jul 01:21:22 01:23:12 12° 305° (NW) 01:25:03 437.505
QB50P2 27 Jul 01:27:10 01:30:52 30° 291° (WNW) 01:34:32 145.880/145.840
SPROUT 27 Jul 01:27:19 01:30:16 18° 267° (W) 01:33:14 437.525
UKube-1 27 Jul 01:27:22 01:31:41 84° 76° (ENE) 01:36:02 .
BUGSAT 1 27 Jul 01:28:46 01:32:49 58° 101° (E) 01:36:47 437.445
NANOSAT C BR1 27 Jul 01:37:13 01:40:50 28° 291° (WNW) 01:44:25 145.865
EO-79 27 Jul 01:38:40 01:42:07 25° 292° (WNW) 01:45:34 145.935-145.965
O/OREOS (USA 219) 27 Jul 01:39:27 01:43:26 32° 255° (WSW) 01:47:26 437.305
Tancredo 1 27 Jul 01:43:34 01:46:32 89° 48° (NE) 01:49:28 437.200
ISS 27 Jul 01:49:26 01:52:34 40° 27° (NNE) 01:55:40 437.550
Oscar 19 27 Jul 01:59:55 02:04:56 49° 100° (E) 02:09:56 437.125/150
BEESAT 27 Jul 02:11:23 02:15:23 28° 66° (ENE) 02:19:24 436.000
ITUPSAT 1 27 Jul 02:25:35 02:29:57 37° 69° (ENE) 02:34:19 437.325
DX 1 27 Jul 02:27:01 02:29:41 16° 268° (W) 02:32:23 434.975-435.025
nSIGHT-1 27 Jul 02:29:41 02:32:56 90° 38° (NE) 02:36:09 .
Gurwin Techsat 1B 27 Jul 02:42:14 02:47:35 77° 103° (ESE) 02:52:54 435.225
MOZHAYETS 4 27 Jul 02:53:27 02:57:51 49° 72° (ENE) 03:02:16
RS-15 27 Jul 02:58:56 03:07:52 26° 260° (W) 03:16:30 29.354- 29.394
BUGSAT 1 27 Jul 03:05:49 03:07:40 13° 298° (WNW) 03:09:30 437.445
KKS-1 27 Jul 03:22:28 03:24:06 12° 60° (ENE) 03:25:44 437.445
ISS 27 Jul 03:26:07 03:28:55 27° 224° (SW) 03:31:43 437.550
AO-7 27 Jul 03:26:58 03:34:14 32° 96° (E) 03:41:26 .
CUBESAT XI-V 27 Jul 03:34:16 03:38:05 27° 67° (ENE) 03:41:56 437.345
PCSat 27 Jul 03:35:20 03:38:46 17° 105° (ESE) 03:42:12 145.827
Oscar 19 27 Jul 03:39:58 03:43:54 22° 297° (WNW) 03:47:51 437.125/150
BEESAT 27 Jul 03:48:44 03:53:02 33° 263° (W) 03:57:21 436.000
ITAMSAT 1 27 Jul 03:56:02 04:01:00 44° 99° (E) 04:05:55 435.822/435.867
ITUPSAT 1 27 Jul 04:03:57 04:07:50 25° 265° (W) 04:11:46 437.325
nSIGHT-1 27 Jul 04:08:03 04:08:51 11° 230° (SW) 04:09:38 .
Gurwin Techsat 1B 27 Jul 04:23:48 04:26:52 16° 301° (WNW) 04:29:55 435.225
MOZHAYETS 4 27 Jul 04:32:22 04:35:17 17° 268° (W) 04:38:12
KKS-1 27 Jul 04:55:32 05:00:00 78° 256° (WSW) 05:04:31 437.445
CUBESAT XI-V 27 Jul 05:11:15 05:15:20 31° 264° (W) 05:19:27 437.345
PCSat 27 Jul 05:16:09 05:21:33 68° 301° (WNW) 05:27:00 145.827
DOVE 4 27 Jul 05:18:31 05:22:29 22° 91° (E) 05:26:20 437.250
STARS 27 Jul 05:19:07 05:23:33 79° 74° (ENE) 05:28:00 437.465
AO-7 27 Jul 05:19:13 05:27:23 60° 295° (WNW) 05:35:30 .
YUBILEINY 27 Jul 05:20:20 05:28:50 51° 75° (ENE) 05:37:12 435.215
ITAMSAT 1 27 Jul 05:36:02 05:40:12 25° 296° (WNW) 05:44:20 435.822/435.867
STRAND 1 27 Jul 05:40:48 05:42:14 11° 57° (ENE) 05:43:40 437.568
SO-50 27 Jul 05:48:00 05:52:23 52° 119° (ESE) 05:56:47 436.795
XW-2D 27 Jul 05:56:56 05:59:09 15° 92° (E) 06:01:22 145.860 - 145.880
CUTE-I 27 Jul 06:00:07 06:03:40 18° 91° (E) 06:07:11 437.470
XW-2B 27 Jul 06:06:39 06:09:22 19° 94° (E) 06:12:04 145.730 - 145.750
NUDT-PHONESAT 27 Jul 06:22:41 06:25:33 21° 95° (E) 06:28:24 437.300
XW-2C 27 Jul 06:23:37 06:26:58 30° 97° (E) 06:30:19 145.795 - 145.815
KAITUO 1B 27 Jul 06:39:58 06:43:26 35° 98° (E) 06:46:54 145.475/437.950
LilacSat-2 27 Jul 06:49:19 06:53:06 69° 102° (ESE) 06:56:53 437.200
DOVE 4 27 Jul 06:55:21 07:00:24 48° 289° (WNW) 07:05:15 437.250
XW-2F 27 Jul 06:59:19 07:03:05 82° 104° (ESE) 07:06:50 145.980 - 146.000
PCSat 27 Jul 07:03:07 07:05:59 14° 323° (NW) 07:08:52 145.827
AO-7 27 Jul 07:14:16 07:18:27 15° 316° (NW) 07:22:37 .
STRAND 1 27 Jul 07:15:24 07:20:33 79° 74° (ENE) 07:25:42 437.568
YUBILEINY 27 Jul 07:17:37 07:25:19 36° 275° (W) 07:32:58 435.215
FO-29 27 Jul 07:20:42 07:24:21 14° 50° (NE) 07:28:00 435.910
SO-50 27 Jul 07:29:34 07:33:07 22° 317° (NW) 07:36:40 436.795
XW-2D 27 Jul 07:29:59 07:33:28 37° 288° (WNW) 07:36:59 145.860 - 145.880
CUTE 1.7 + AOD 2 27 Jul 07:33:25 07:37:17 33° 97° (E) 07:41:08 437.475
CUBEBUG 2 27 Jul 07:37:31 07:40:28 18° 92° (E) 07:43:23 437.445
CUTE-I 27 Jul 07:38:50 07:44:07 61° 288° (WNW) 07:49:21 437.470
XW-2B 27 Jul 07:40:16 07:43:35 30° 289° (WNW) 07:46:54 145.730 - 145.750
SEEDS 27 Jul 07:41:24 07:44:56 26° 95° (E) 07:48:29 437.485
HO-68 27 Jul 07:52:58 07:59:59 55° 101° (E) 08:06:57 435.675
NUDT-PHONESAT 27 Jul 07:56:21 07:59:24 25° 291° (WNW) 08:02:27 437.300
XW-2C 27 Jul 07:58:15 08:00:57 19° 293° (WNW) 08:03:40 145.795 - 145.815
KAITUO 1B 27 Jul 08:14:49 08:17:09 16° 294° (WNW) 08:19:30 145.475/437.950
AAUSAT CUBESAT 2 27 Jul 08:17:50 08:21:31 29° 96° (E) 08:25:12 437.432
UWE-3 27 Jul 08:29:52 08:33:49 40° 98° (E) 08:37:42 435.000/436.395/437.385
XW-2A 27 Jul 08:37:09 08:40:28 64° 284° (WNW) 08:43:46 145.665 - 145.685
ZACube-1 27 Jul 08:38:30 08:42:04 27° 95° (E) 08:45:36 437.345
STRAND 1 27 Jul 08:58:09 09:00:19 12° 271° (W) 09:02:28 437.568
M-CUBED/EXP-1 PRIME 27 Jul 08:59:41 09:01:14 12° 55° (NE) 09:02:51 437.505
Oscar 11 27 Jul 09:00:09 09:04:04 33° 96° (E) 09:07:58 .
FO-29 27 Jul 09:00:16 09:07:48 60° 70° (ENE) 09:15:30 435.910
UNISAT 6 27 Jul 09:01:05 09:04:53 26° 68° (ENE) 09:08:38 437.425
CUTE 1.7 + AOD 2 27 Jul 09:09:38 09:12:55 22° 293° (WNW) 09:16:13 437.475
CUBEBUG 2 27 Jul 09:13:21 09:17:15 37° 289° (WNW) 09:21:05 437.445
AO-73 27 Jul 09:16:51 09:20:59 67° 102° (ESE) 09:25:05 145.935
SEEDS 27 Jul 09:16:58 09:20:35 28° 291° (WNW) 09:24:10 437.485
HO-68 27 Jul 09:41:16 09:47:22 31° 300° (WNW) 09:53:25 435.675
TIGRISAT 27 Jul 09:43:42 09:48:16 64° 74° (ENE) 09:52:48 435.000
PRISM 27 Jul 09:49:32 09:53:35 67° 74° (ENE) 09:57:42 437.425
AAUSAT CUBESAT 2 27 Jul 09:53:29 09:56:50 24° 292° (WNW) 10:00:12 437.432
UWE-3 27 Jul 10:07:10 10:09:58 18° 295° (WNW) 10:12:44 435.000/436.395/437.385
NO-84 27 Jul 10:12:38 10:15:26 39° 133° (SE) 10:18:25 435.350 FM
ZACube-1 27 Jul 10:14:52 10:18:15 25° 292° (WNW) 10:21:38 437.345
EO-88 27 Jul 10:24:15 10:27:45 43° 99° (E) 10:31:13 145.990 - 145.960
M-CUBED/EXP-1 PRIME 27 Jul 10:31:23 10:35:02 64° 254° (WSW) 10:39:03 437.505
POLYITAN 1 27 Jul 10:32:54 10:35:06 14° 63° (ENE) 10:37:18 437.675
DELFI C3 27 Jul 10:33:01 10:37:02 87° 284° (WNW) 10:41:03 145.870
Oscar 11 27 Jul 10:36:38 10:40:01 23° 293° (WNW) 10:43:25 .
UNISAT 6 27 Jul 10:37:16 10:41:26 33° 263° (W) 10:45:34 437.425
QB50P2 27 Jul 10:45:02 10:48:10 20° 66° (ENE) 10:51:18 145.880/145.840
FO-29 27 Jul 10:46:30 10:53:07 31° 268° (W) 10:59:56 435.910
NANOSAT C BR1 27 Jul 10:54:29 10:57:40 21° 66° (ENE) 11:00:50 145.865
AO-73 27 Jul 10:55:21 10:56:40 11° 298° (WNW) 10:57:57 145.935
EO-79 27 Jul 10:55:50 10:59:15 24° 67° (ENE) 11:02:40 145.935-145.965
AO-85 27 Jul 11:21:50 11:24:38 18° 113° (ESE) 11:27:23 145.980
TIGRISAT 27 Jul 11:23:10 11:25:20 13° 270° (W) 11:27:29 435.000
PRISM 27 Jul 11:28:57 11:29:19 10° 271° (W) 11:29:40 437.425
AIST 2D 27 Jul 11:30:48 11:34:13 56° 261° (W) 11:37:39 435.315
Oscar 19 27 Jul 11:43:05 11:43:58 10° 56° (NE) 11:44:51 437.125/150
NO-84 27 Jul 11:50:23 11:52:58 24° 333° (NNW) 11:55:44 435.350 FM
LO-87 27 Jul 11:53:40 11:57:17 74° 102° (ESE) 12:00:50 145.935 - 145.965
EO-88 27 Jul 11:59:18 12:01:02 13° 295° (WNW) 12:02:46 145.990 - 145.960
DUCHIFAT 1 27 Jul 11:59:44 12:04:00 86° 260° (W) 12:08:15 145.980
ESTCUBE 1 27 Jul 12:04:35 12:09:02 54° 100° (E) 12:13:28 437.505/2401.250
POLYITAN 1 27 Jul 12:06:12 12:10:24 58° 259° (W) 12:14:37 437.675
BEESAT 3 27 Jul 12:15:59 12:19:57 75° 122° (ESE) 12:24:00 437.485
BUGSAT 1 27 Jul 12:18:32 12:22:33 43° 72° (ENE) 12:26:34 437.445
QB50P2 27 Jul 12:19:44 12:23:42 37° 262° (W) 12:27:41 145.880/145.840
PCSat 27 Jul 12:20:51 12:24:51 20° 43° (NE) 12:28:49 145.827
Gurwin Techsat 1B 27 Jul 12:26:22 12:29:53 18° 61° (ENE) 12:33:25 435.225
NANOSAT C BR1 27 Jul 12:29:14 12:33:09 35° 263° (W) 12:37:04 145.865
EO-79 27 Jul 12:31:03 12:34:51 31° 263° (W) 12:38:40 145.935-145.965
VELOX 1 27 Jul 12:39:30 12:43:21 28° 96° (E) 12:47:09 145.980
SO-50 27 Jul 12:40:10 12:41:27 11° 32° (NNE) 12:42:44 436.795
AO-7 27 Jul 12:40:57 12:43:31 12° 40° (NE) 12:46:05 .
AO-85 27 Jul 13:00:59 13:04:44 39° 309° (NW) 13:08:26 145.980
BEESAT 2 27 Jul 13:01:41 13:05:40 77° 121° (ESE) 13:09:43 435.950
SPROUT 27 Jul 13:10:32 13:14:48 73° 101° (E) 13:19:02 437.525
UKube-1 27 Jul 13:15:23 13:17:26 13° 91° (E) 13:19:28 .
Oscar 19 27 Jul 13:17:18 13:22:24 76° 73° (ENE) 13:27:31 437.125/150
NO-84 27 Jul 13:30:28 13:31:29 11° 355° (N) 13:32:31 435.350 FM
ITAMSAT 1 27 Jul 13:40:11 13:41:06 10° 55° (NE) 13:42:01 435.822/435.867
ESTCUBE 1 27 Jul 13:42:36 13:45:24 16° 297° (WNW) 13:48:11 437.505/2401.250
BUGSAT 1 27 Jul 13:55:23 13:58:05 17° 268° (W) 14:00:49 437.445
BEESAT 3 27 Jul 13:55:43 13:58:02 15° 320° (NW) 14:00:22 437.485
PCSat 27 Jul 14:03:24 14:08:51 76° 242° (WSW) 14:14:14 145.827
Gurwin Techsat 1B 27 Jul 14:04:02 14:09:18 65° 258° (WSW) 14:14:36 435.225
50 SAT 27 Jul 14:05:41 14:09:07 64° 284° (WNW) 14:12:29 437.505
DX 1 27 Jul 14:12:17 14:16:42 84° 104° (ESE) 14:21:05 434.975-435.025
O/OREOS (USA 219) 27 Jul 14:13:27 14:17:08 25° 103° (ESE) 14:20:49 437.305
VELOX 1 27 Jul 14:15:53 14:19:44 29° 292° (WNW) 14:23:33 145.980
SO-50 27 Jul 14:18:26 14:22:55 55° 53° (NE) 14:27:25 436.795
AO-7 27 Jul 14:26:21 14:34:13 48° 62° (ENE) 14:42:07 .
BEESAT 2 27 Jul 14:41:39 14:43:56 14° 321° (NW) 14:46:13 435.950
SPROUT 27 Jul 14:48:43 14:50:06 11° 299° (WNW) 14:51:28 437.525
UKube-1 27 Jul 14:49:32 14:53:48 58° 287° (WNW) 14:58:02 .
MOZHAYETS 4 27 Jul 14:50:19 14:51:21 11° 88° (E) 14:52:25
Oscar 19 27 Jul 14:59:56 15:02:16 13° 271° (W) 15:04:36 437.125/150
RS-15 27 Jul 15:07:17 15:18:56 55° 112° (ESE) 15:30:45 29.354- 29.394
NO-84 27 Jul 15:08:07 15:10:13 15° 17° (NNE) 15:12:24 435.350 FM
ITAMSAT 1 27 Jul 15:14:25 15:19:37 73° 73° (ENE) 15:24:51 435.822/435.867
BEESAT 27 Jul 15:47:27 15:52:08 57° 101° (E) 15:56:48 436.000
DX 1 27 Jul 15:51:12 15:52:12 11° 301° (WNW) 15:53:11 434.975-435.025
O/OREOS (USA 219) 27 Jul 15:52:22 15:56:23 32° 300° (WNW) 16:00:25 437.305
SO-50 27 Jul 15:59:57 16:02:57 17° 249° (WSW) 16:05:57 436.795
ITUPSAT 1 27 Jul 16:02:29 16:07:16 80° 103° (ESE) 16:12:01 437.325
AO-7 27 Jul 16:19:16 16:27:02 42° 261° (W) 16:34:52 .
DOVE 4 27 Jul 16:24:08 16:28:02 23° 64° (ENE) 16:32:05 437.250
MOZHAYETS 4 27 Jul 16:24:29 16:29:02 76° 284° (WNW) 16:33:35
NO-84 27 Jul 16:44:45 16:48:23 47° 35° (NE) 16:52:17 435.350 FM
KKS-1 27 Jul 16:46:40 16:49:50 19° 93° (E) 16:52:58 437.445
XW-2B 27 Jul 16:50:22 16:51:20 11° 63° (ENE) 16:52:17 145.730 - 145.750
ITAMSAT 1 27 Jul 16:56:52 16:59:36 14° 270° (W) 17:02:21 435.822/435.867
NUDT-PHONESAT 27 Jul 17:04:07 17:05:23 12° 64° (ENE) 17:06:40 437.300
XW-2C 27 Jul 17:06:12 17:08:40 17° 67° (ENE) 17:11:08 145.795 - 145.815
CUBESAT XI-V 27 Jul 17:06:13 17:10:51 59° 100° (E) 17:15:29 437.345
STARS 27 Jul 17:09:28 17:11:36 13° 91° (E) 17:13:45 437.465
RS-15 27 Jul 17:19:42 17:31:37 53° 316° (NW) 17:43:40 29.354- 29.394
KAITUO 1B 27 Jul 17:21:08 17:23:46 19° 67° (ENE) 17:26:24 145.475/437.950
CUTE-I 27 Jul 17:22:04 17:26:46 32° 66° (ENE) 17:31:28 437.470
BEESAT 27 Jul 17:26:25 17:29:27 17° 298° (WNW) 17:32:28 436.000
LilacSat-2 27 Jul 17:31:42 17:35:08 35° 72° (ENE) 17:38:35 437.200
XW-2F 27 Jul 17:40:34 17:44:04 39° 72° (ENE) 17:47:34 145.980 - 146.000
ITUPSAT 1 27 Jul 17:42:21 17:44:25 13° 301° (WNW) 17:46:29 437.325
DOVE 4 27 Jul 18:00:38 18:05:22 46° 263° (W) 18:10:22 437.250
XW-2D 27 Jul 18:11:07 18:14:51 75° 258° (WSW) 18:18:37 145.860 - 145.880
Tancredo 1 27 Jul 18:14:00 18:15:19 12° 132° (SE) 18:16:37 437.200
XW-2B 27 Jul 18:21:20 18:25:01 58° 260° (W) 18:28:44 145.730 - 145.750
YUBILEINY 27 Jul 18:21:34 18:30:08 57° 90° (E) 18:38:41 435.215
HO-68 27 Jul 18:22:08 18:28:49 44° 65° (ENE) 18:35:30 435.675
KKS-1 27 Jul 18:22:20 18:26:34 42° 289° (WNW) 18:30:45 437.445
NO-84 27 Jul 18:22:30 18:25:44 25° 230° (SW) 18:29:09 435.350 FM
CUTE 1.7 + AOD 2 27 Jul 18:26:47 18:30:15 25° 68° (ENE) 18:33:43 437.475
SEEDS 27 Jul 18:34:02 18:37:02 20° 66° (ENE) 18:40:03 437.485
NUDT-PHONESAT 27 Jul 18:35:15 18:38:50 51° 261° (W) 18:42:25 437.300
CUBEBUG 2 27 Jul 18:35:55 18:39:15 20° 66° (ENE) 18:42:31 437.445
XW-2C 27 Jul 18:39:10 18:42:36 34° 263° (W) 18:46:03 145.795 - 145.815
STARS 27 Jul 18:43:58 18:48:19 58° 287° (WNW) 18:52:37 437.465
CUBESAT XI-V 27 Jul 18:44:55 18:47:45 16° 297° (WNW) 18:50:34 437.345
KAITUO 1B 27 Jul 18:54:20 18:57:34 29° 264° (W) 19:00:49 145.475/437.950
CUTE-I 27 Jul 19:01:50 19:06:43 35° 263° (W) 19:11:37 437.470
LilacSat-2 27 Jul 19:07:10 19:09:32 16° 268° (W) 19:11:54 437.200
XW-2A 27 Jul 19:08:39 19:11:50 40° 73° (ENE) 19:15:01 145.665 - 145.685
AAUSAT CUBESAT 2 27 Jul 19:08:48 19:11:56 21° 67° (ENE) 19:15:06 437.432
nSIGHT-1 27 Jul 19:09:56 19:12:14 18° 133° (SE) 19:14:32 .
XW-2F 27 Jul 19:16:25 19:18:22 14° 268° (W) 19:20:20 145.980 - 146.000
STRAND 1 27 Jul 19:25:50 19:30:03 25° 94° (E) 19:34:12 437.568
UWE-3 27 Jul 19:26:54 19:31:05 37° 71° (ENE) 19:35:10 435.000/436.395/437.385
ZACube-1 27 Jul 19:34:45 19:38:21 25° 68° (ENE) 19:41:54 437.345
RS-15 27 Jul 19:38:01 19:47:55 26° 347° (NNW) 19:57:42 29.354- 29.394
Tancredo 1 27 Jul 19:47:25 19:50:19 68° 327° (NNW) 19:53:15 437.200
AO-85 27 Jul 19:50:44 19:54:08 24° 46° (NE) 19:57:43 145.980
Oscar 11 27 Jul 19:55:33 19:59:12 28° 69° (ENE) 20:02:52 .
CUTE 1.7 + AOD 2 27 Jul 20:02:24 20:05:59 27° 265° (W) 20:09:36 437.475
ISS 27 Jul 20:05:41 20:08:54 62° 142° (SE) 20:12:07 437.550
SEEDS 27 Jul 20:08:38 20:12:28 36° 263° (W) 20:16:20 437.485
CUBEBUG 2 27 Jul 20:11:03 20:15:33 45° 261° (W) 20:19:57 437.445
AO-73 27 Jul 20:12:22 20:16:39 56° 74° (ENE) 20:20:52 145.935
